Weather History for Jefferson, NC

Change the Weather History Date:

Wednesday, February 25, 2009

  Actual Average Record
Temperature  
Mean Temperature 35 °F -  
Max Temperature 42 °F 47 °F 64 °F (1976)
Min Temperature 28 °F 27 °F -6 °F (1967)
Degree Days  
Heating Degree Days 30    
Moisture  
Dew Point 16 °F    
Average Humidity 48    
Maximum Humidity 56    
Minimum Humidity 42    
Precipitation  
Precipitation 0.00 in - - ()
Sea Level Pressure  
Sea Level Pressure 30.29 in    
Wind  
Wind Speed 1 mph (SSE)    
Max Wind Speed 6 mph    
Max Gust Speed -    
Visibility 10 miles    
Events      
Averages and records for this station are not official NWS values.
T = Trace of Precipitation, MM = Missing Value Source: NWS Daily Summary

Daily Weather History Graph

Daily Weather History Graph

Search for Another Location

Airport:

Trip Planner

Search our weather history database for the weather conditions in past years. The results will help you decide how hot, cold, wet, or windy it might be!

Date:

Astronomy

Feb. 25, 2009 Rise Set
Actual Time 7:01 AM EST 6:16 PM EST
Civil Twilight 6:35 AM EST 6:42 PM EST
Nautical Twilight 6:05 AM EST 7:12 PM EST
Astronomical Twilight 5:35 AM EST 7:42 PM EST
Moon 7:06 AM EST (2/25) 7:09 PM EST (2/25)
Length of Visible Light 12h 07m
Length of Day
11h 15m
New Moon, 0% of the Moon is Illuminated
Feb 25
New Moon
Mar 4
First Quarter
Mar 10
Full
Mar 18
Last Quarter
Mar 26
New

Hourly Weather History & Observations

Time (EST) Temp. Windchill Dew Point Humidity Pressure Visibility Wind Dir Wind Speed Gust Speed Precip Events Conditions
12:01 AM 30.2 °F - 12.2 °F 47% 30.29 in 10.0 mi Calm Calm - N/A   Mostly Cloudy
12:20 AM 30.2 °F 26.7 °F 12.2 °F 47% 30.30 in 10.0 mi SSE 3.5 mph - N/A   Mostly Cloudy
12:40 AM 28.4 °F 24.6 °F 10.4 °F 47% 30.30 in 10.0 mi SSE 3.5 mph - N/A   Overcast
1:00 AM 30.2 °F - 12.2 °F 47% 30.30 in 10.0 mi Calm Calm - N/A   Overcast
1:20 AM 30.2 °F 26.7 °F 12.2 °F 47% 30.29 in 10.0 mi South 3.5 mph - N/A   Overcast
1:40 AM 30.2 °F - 10.4 °F 44% 30.29 in 10.0 mi Calm Calm - N/A   Overcast
2:00 AM 30.2 °F - 10.4 °F 44% 30.29 in 10.0 mi Calm Calm - N/A   Scattered Clouds
2:21 AM 30.2 °F - 10.4 °F 44% 30.29 in 10.0 mi Calm Calm - N/A   Clear
2:40 AM 30.2 °F - 12.2 °F 47% 30.28 in 10.0 mi Calm Calm - N/A   Clear
3:00 AM 30.2 °F - 12.2 °F 47% 30.28 in 10.0 mi Calm Calm - N/A   Clear
3:20 AM 30.2 °F - 12.2 °F 47% 30.28 in 10.0 mi Calm Calm - N/A   Scattered Clouds
3:40 AM 30.2 °F - 12.2 °F 47% 30.28 in 10.0 mi Calm Calm - N/A   Mostly Cloudy
4:00 AM 30.2 °F - 12.2 °F 47% 30.28 in 10.0 mi Calm Calm - N/A   Overcast
4:20 AM 30.2 °F - 12.2 °F 47% 30.29 in 10.0 mi Calm Calm - N/A   Overcast
4:40 AM 30.2 °F - 12.2 °F 47% 30.28 in 10.0 mi Calm Calm - N/A   Overcast
5:00 AM 30.2 °F - 12.2 °F 47% 30.28 in 10.0 mi Calm Calm - N/A   Overcast
5:20 AM 30.2 °F - 12.2 °F 47% 30.29 in 10.0 mi Calm Calm - N/A   Overcast
5:40 AM 30.2 °F - 12.2 °F 47% 30.29 in 10.0 mi Calm Calm - N/A   Overcast
6:00 AM 30.2 °F - 12.2 °F 47% 30.29 in 10.0 mi Calm Calm - N/A   Overcast
6:20 AM 30.2 °F - 14.0 °F 51% 30.30 in 10.0 mi Calm Calm - N/A   Overcast
6:40 AM 30.2 °F - 14.0 °F 51% 30.30 in 10.0 mi Calm Calm - N/A   Overcast
7:02 AM 30.2 °F - 12.2 °F 47% 30.31 in 10.0 mi Calm Calm - N/A   Overcast
7:20 AM 28.4 °F - 12.2 °F 51% 30.31 in 10.0 mi Calm Calm - N/A   Overcast
7:40 AM 30.2 °F - 14.0 °F 51% 30.31 in 10.0 mi Calm Calm - N/A   Overcast
8:00 AM 30.2 °F - 14.0 °F 51% 30.31 in 10.0 mi Calm Calm - N/A   Overcast
8:20 AM 30.2 °F - 15.8 °F 55% 30.31 in 10.0 mi Calm Calm - N/A   Overcast
8:40 AM 30.2 °F - 15.8 °F 55% 30.32 in 10.0 mi Calm Calm - N/A   Overcast
9:00 AM 30.2 °F - 15.8 °F 55% 30.32 in 10.0 mi Calm Calm - N/A   Overcast
9:21 AM 32.0 °F - 15.8 °F 51% 30.32 in 10.0 mi Calm Calm - N/A   Overcast
9:41 AM 33.8 °F - 15.8 °F 48% 30.32 in 10.0 mi Calm Calm - N/A   Overcast
10:00 AM 33.8 °F - 15.8 °F 48% 30.32 in 10.0 mi Calm Calm - N/A   Overcast
10:20 AM 35.6 °F - 17.6 °F 48% 30.32 in 10.0 mi Calm Calm - N/A   Overcast
10:40 AM 35.6 °F - 17.6 °F 48% 30.32 in 10.0 mi Calm Calm - N/A   Overcast
11:00 AM 35.6 °F 32.8 °F 15.8 °F 44% 30.32 in 10.0 mi South 3.5 mph - N/A   Overcast
11:20 AM 37.4 °F - 17.6 °F 45% 30.32 in 10.0 mi Calm Calm - N/A   Overcast
11:41 AM 37.4 °F - 17.6 °F 45% 30.32 in 10.0 mi Calm Calm - N/A   Overcast
12:00 PM 37.4 °F - 17.6 °F 45% 30.32 in 10.0 mi Calm Calm - N/A   Overcast
12:21 PM 39.2 °F 37.0 °F 19.4 °F 45% 30.31 in 10.0 mi ESE 3.5 mph - N/A   Overcast
12:40 PM 41.0 °F 39.0 °F 21.2 °F 45% 30.31 in 10.0 mi ESE 3.5 mph - N/A   Overcast
1:00 PM 41.0 °F 38.0 °F 21.2 °F 45% 30.30 in 10.0 mi SE 4.6 mph - N/A   Overcast
1:21 PM 41.0 °F 39.0 °F 21.2 °F 45% 30.30 in 10.0 mi SE 3.5 mph - N/A   Overcast
1:40 PM 41.0 °F 38.0 °F 19.4 °F 42% 30.29 in 10.0 mi SE 4.6 mph - N/A   Overcast
2:00 PM 42.8 °F 40.1 °F 21.2 °F 42% 30.28 in 10.0 mi SE 4.6 mph - N/A   Overcast
2:20 PM 41.0 °F 38.0 °F 19.4 °F 42% 30.28 in 10.0 mi SE 4.6 mph - N/A   Overcast
3:00 PM 41.0 °F 37.1 °F 19.4 °F 42% 30.27 in 10.0 mi SE 5.8 mph - N/A   Overcast
3:20 PM 41.0 °F 38.0 °F 19.4 °F 42% 30.27 in 10.0 mi SSE 4.6 mph - N/A   Overcast
3:41 PM 41.0 °F 38.0 °F 21.2 °F 45% 30.27 in 10.0 mi SE 4.6 mph - N/A   Overcast
4:00 PM 41.0 °F 37.1 °F 21.2 °F 45% 30.26 in 10.0 mi SSE 5.8 mph - N/A   Overcast
4:20 PM 41.0 °F 37.1 °F 21.2 °F 45% 30.27 in 10.0 mi SSE 5.8 mph - N/A   Overcast
4:40 PM 39.2 °F 35.9 °F 19.4 °F 45% 30.27 in 10.0 mi SE 4.6 mph - N/A   Overcast
5:00 PM 37.4 °F 34.9 °F 19.4 °F 48% 30.27 in 10.0 mi SSE 3.5 mph - N/A   Overcast
5:21 PM 37.4 °F 33.8 °F 19.4 °F 48% 30.27 in 10.0 mi SSE 4.6 mph - N/A   Overcast
5:40 PM 37.4 °F 32.8 °F 21.2 °F 52% 30.27 in 10.0 mi SSE 5.8 mph - N/A   Overcast
6:00 PM 37.4 °F - 21.2 °F 52% 30.28 in 10.0 mi Calm Calm - N/A   Overcast
6:20 PM 37.4 °F 33.8 °F 21.2 °F 52% 30.28 in 10.0 mi SSE 4.6 mph - N/A   Overcast
7:01 PM 35.6 °F 31.7 °F 21.2 °F 56% 30.28 in 10.0 mi SSE 4.6 mph - N/A   Overcast
7:20 PM 35.6 °F 32.8 °F 19.4 °F 52% 30.27 in 10.0 mi South 3.5 mph - N/A   Mostly Cloudy
7:40 PM 35.6 °F 31.7 °F 19.4 °F 52% 30.27 in 10.0 mi South 4.6 mph - N/A   Mostly Cloudy
8:01 PM 35.6 °F 32.8 °F 19.4 °F 52% 30.28 in 10.0 mi South 3.5 mph - N/A   Mostly Cloudy
8:20 PM 35.6 °F 32.8 °F 19.4 °F 52% 30.28 in 10.0 mi South 3.5 mph - N/A   Mostly Cloudy
8:40 PM 35.6 °F - 19.4 °F 52% 30.28 in 10.0 mi Calm Calm - N/A   Overcast
9:01 PM 35.6 °F 32.8 °F 19.4 °F 52% 30.28 in 10.0 mi South 3.5 mph - N/A   Overcast
9:20 PM 37.4 °F 34.9 °F 21.2 °F 52% 30.29 in 10.0 mi South 3.5 mph - N/A   Overcast
9:40 PM 35.6 °F 32.8 °F 21.2 °F 56% 30.29 in 10.0 mi South 3.5 mph - N/A   Overcast
10:00 PM 33.8 °F - 21.2 °F 60% 30.29 in 10.0 mi Calm Calm - N/A   Overcast
10:20 PM 35.6 °F - 23.0 °F 60% 30.29 in 10.0 mi Calm Calm - N/A   Overcast
10:40 PM 35.6 °F 32.8 °F 23.0 °F 60% 30.29 in 10.0 mi SSE 3.5 mph - N/A   Overcast
11:00 PM 35.6 °F - 23.0 °F 60% 30.28 in 10.0 mi Calm Calm - N/A   Overcast
11:20 PM 35.6 °F 32.8 °F 23.0 °F 60% 30.28 in 10.0 mi South 3.5 mph - N/A   Overcast
11:40 PM 35.6 °F - 21.2 °F 56% 30.28 in 10.0 mi Calm Calm - N/A   Overcast